Hourly Weather Roundup
Issued by NWS Central Illinois

Home | Current Version | Previous Version | Text Only | Print | Product List | Glossary On
Versions: 1 2 3 4 5 6 7 8 9 10 11 12 13 14 15 16 17 18 19 20 21 22 23 24 25 26 27 28 29 30 31 32 33 34 35 36 37 38 39 40 41 42 43 44 45 46 47 48 49 50
000
NZUS43 KILX 181410
HWRILX

AREA WEATHER ROUNDUP
NATIONAL WEATHER SERVICE, LINCOLN IL
800 AM CST WED JAN 18 2017


CITY           SKY/WX    TMP DP  RH WIND       PRES   REMARKS
BLOOMINGTON    CLOUDY    34  33  96 W8        30.16S FOG     WCI  27
CHAMPAIGN      CLOUDY    35  33  92 NW9       30.18S WCI  28
DANVILLE       CLOUDY    33  33  98 W8        30.15F WCI  27
DECATUR        CLOUDY    36  35  96 SW5       30.20R WCI  32
EFFINGHAM      CLOUDY    37  37  97 SW8       30.25R WCI  31
FLORA          CLOUDY    39  36  87 NW6       30.24S WCI  35
GALESBURG      CLOUDY    30  30  99 S6        30.16R WCI  24
JACKSONVILLE   CLOUDY    34  31  89 SW3       30.21R
LACON          CLOUDY    34  33  95 NW5       30.14F WCI  30
LAWRENCEVILLE  CLOUDY    39  37  92 W6        30.24R WCI  35
LITCHFIELD     CLOUDY    35  31  88 W3        30.22S
$$


CITY           SKY/WX    TMP DP  RH WIND       PRES   REMARKS
LINCOLN        CLOUDY    37  33  86 CALM      30.19R
MACOMB         CLOUDY    32  32  99 SW8       30.20R WCI  25
MATTOON        CLOUDY    36  34  92 W6        30.21R WCI  31
MT CARMEL AP   CLOUDY    38  35  88 NW5       30.24R WCI  35
OLNEY-NOBLE AP CLOUDY    37  37 100 W3        30.24R
PARIS          CLOUDY    36  35  96 NW7       30.20R WCI  30
PEORIA         CLOUDY    34  31  88 W8        30.17R WCI  27
PONTIAC        CLOUDY    35  35 100 W10       30.17S FOG     WCI  27
RANTOUL        CLOUDY    36  35  96 W9        30.17S FOG     WCI  29
SPRINGFIELD    CLOUDY    37  32  82 SW7       30.21R WCI  32
TAYLORVILLE    CLOUDY    35  31  87 W7        30.22S WCI  29
$$

...REGIONAL REPORTS...


CITY           SKY/WX    TMP DP  RH WIND       PRES   REMARKS
CHICAGO O`HARE CLOUDY    34  32  92 W10       30.13R WCI  26
KANKAKEE       CLOUDY    33  32  96 W9        30.17S WCI  25
MOLINE         CLOUDY    33  29  85 SW3       30.13S
MOUNT STERLING CLOUDY    33  31  92 SW5       30.19R WCI  28
MOUNT VERNON   CLOUDY    39  34  82 W3        30.25R
PITTSFIELD     CLOUDY    35  32  88 SW6       30.21S WCI  30
QUINCY         CLOUDY    34  32  92 SW9       30.19R FOG     WCI  27
ROCKFORD       DRIZZLE   33  32  96 W9        30.15R FOG     WCI  25
$$


CITY           SKY/WX    TMP DP  RH WIND       PRES   REMARKS
BURLINGTON     CLOUDY    32  31  96 SW9       30.16R WCI  24
CEDAR RAPIDS   CLOUDY    28  27  96 S6        30.10S FOG     WCI  22
DES MOINES     FOG       31  30  96 S7        30.08S VSB 1/8 WCI  24
KIRKSVILLE     CLOUDY    34  33  96 SW8       30.17R FOG     WCI  27
OTTUMWA        CLOUDY    32  30  92 SW9       30.12R FOG     WCI  24
ST LOUIS       CLOUDY    37  30  75 W3        30.23R
$$


CITY           SKY/WX    TMP DP  RH WIND       PRES   REMARKS
TERRE HAUTE    CLOUDY    37  34  89 NW7       30.20R WCI  32
EVANSVILLE     CLOUDY    41  34  76 NW6       30.25R
INDIANAPOLIS   CLOUDY    36  33  89 NW9       30.18R WCI  29
LAFAYETTE      CLOUDY    34  33  96 W7        30.17R WCI  28
MADISON        CLOUDY    32  31  96 VRB7      30.08S FOG     WCI  26
MILWAUKEE      CLOUDY    36  32  85 W13       30.08R WCI  27
$$






USA.gov is the U.S. government's official web portal to all federal, state and local government web resources and services.